| time (UTC) | temp F | wind direction | speed MPH | gust MPH | rain 1hr in | rain 24hr in | rain mn in | humidity % | barometer mb |
| 20260504171549 | 56 | 218 | 15.0 | 24.0 | 0.00 | 0.00 | 0.00 | 43 | 1005.1 |
| 20260504171034 | 56 | 217 | 11.0 | 20.0 | 0.00 | 0.00 | 0.00 | 43 | 1005.2 |
| 20260504170534 | 57 | 262 | 7.0 | 18.0 | 0.00 | 0.00 | 0.00 | 42 | 1005.1 |
| 20260504151035 | 59 | 248 | 13.0 | 22.0 | 0.00 | 0.00 | 0.00 | 37 | 1005.3 |
| 20260504150534 | 59 | 237 | 7.0 | 17.0 | 0.00 | 0.00 | 0.00 | 38 | 1005.3 |
| 20260504141033 | 59 | 230 | 10.0 | 27.0 | 0.00 | 0.00 | 0.00 | 36 | 1005.2 |
| 20260504140533 | 59 | 245 | 10.0 | 20.0 | 0.00 | 0.00 | 0.00 | 37 | 1005.3 |
| 20260504130533 | 61 | 262 | 10.0 | 26.0 | 0.00 | 0.00 | 0.00 | 32 | 1005.6 |
| 20260504110533 | 59 | 252 | 4.0 | 13.0 | 0.00 | 0.00 | 0.00 | 36 | 1006.0 |
| 20260504100532 | 56 | 293 | 3.0 | 12.0 | 0.00 | 0.00 | 0.00 | 37 | 1006.2 |
| 20260504081541 | 52 | 334 | 6.0 | 14.0 | 0.00 | 0.00 | 0.00 | 48 | 1006.4 |
| 20260504081033 | 51 | 343 | 7.0 | 14.0 | 0.00 | 0.00 | 0.00 | 49 | 1006.4 |
| 20260504080532 | 51 | 4 | 6.0 | 12.0 | 0.00 | 0.00 | 0.00 | 50 | 1006.4 |
| 20260504050540 | 42 | 336 | 0.0 | 3.0 | 0.00 | 0.00 | 0.00 | 92 | 1005.3 |
| 20260504045533 | 42 | 2 | 2.0 | 4.0 | 0.00 | 0.00 | 0.00 | 92 | 1005.4 |
| 20260504045033 | 42 | 354 | 2.0 | 4.0 | 0.00 | 0.00 | 0.00 | 93 | 1005.4 |
| 20260504044546 | 41 | 6 | 1.0 | 3.0 | 0.00 | 0.00 | 0.00 | 92 | 1005.3 |
| 20260504044034 | 41 | 18 | 0.0 | 1.0 | 0.00 | 0.00 | 0.00 | 92 | 1005.3 |
| 20260504043533 | 41 | 338 | 0.0 | 1.0 | 0.00 | 0.00 | 0.00 | 93 | 1005.3 |
| 20260504043042 | 41 | 0 | 0.0 | 1.0 | 0.00 | 0.00 | 0.00 | 92 | 1005.2 |
| 20260504042532 | 39 | 0 | 0.0 | 1.0 | 0.00 | 0.00 | 0.00 | 92 | 1005.3 |
| 20260504042032 | 39 | 0 | 0.0 | 0.0 | 0.00 | 0.00 | 0.00 | 92 | 1005.3 |
| 20260504041546 | 40 | 0 | 0.0 | 0.0 | 0.00 | 0.00 | 0.00 | 91 | 1005.3 |
| 20260504041032 | 40 | 0 | 0.0 | 0.0 | 0.00 | 0.00 | 0.00 | 91 | 1005.3 |
| 20260504040533 | 40 | 0 | 0.0 | 0.0 | 0.00 | 0.00 | 0.00 | 91 | 1005.2 |
| 20260504040053 | 40 | 0 | 0.0 | 1.0 | 0.00 | 0.00 | 0.00 | 91 | 1005.3 |
| 20260504035533 | 40 | 0 | 0.0 | 1.0 | 0.00 | 0.00 | 0.00 | 90 | 1005.3 |
| 20260504035032 | 41 | 0 | 0.0 | 1.0 | 0.00 | 0.00 | 0.00 | 90 | 1005.3 |
| 20260504034557 | 42 | 0 | 0.0 | 3.0 | 0.00 | 0.00 | 0.00 | 90 | 1005.4 |
| 20260504034033 | 42 | 0 | 0.0 | 3.0 | 0.00 | 0.00 | 0.00 | 90 | 1005.5 |
| 20260504033533 | 42 | 358 | 0.0 | 3.0 | 0.00 | 0.00 | 0.00 | 90 | 1005.4 |
| 20260504033114 | 43 | 344 | 0.0 | 3.0 | 0.00 | 0.00 | 0.00 | 90 | 1005.4 |
| 20260504032533 | 43 | 0 | 2.0 | 3.0 | 0.00 | 0.00 | 0.00 | 90 | 1005.3 |
| 20260504032032 | 43 | 1 | 1.0 | 2.0 | 0.00 | 0.00 | 0.00 | 89 | 1005.4 |
| 20260504031538 | 44 | 0 | 0.0 | 0.0 | 0.00 | 0.00 | 0.00 | 89 | 1005.5 |
| 20260504031035 | 44 | 0 | 0.0 | 0.0 | 0.00 | 0.00 | 0.00 | 89 | 1005.5 |
| 20260504030533 | 44 | 0 | 0.0 | 0.0 | 0.00 | 0.00 | 0.00 | 89 | 1005.6 |
| 20260504030047 | 45 | 0 | 0.0 | 0.0 | 0.00 | 0.00 | 0.00 | 88 | 1005.6 |
| 20260504025534 | 45 | 0 | 0.0 | 0.0 | 0.00 | 0.00 | 0.00 | 88 | 1005.5 |
| 20260504025033 | 45 | 0 | 0.0 | 0.0 | 0.00 | 0.00 | 0.00 | 88 | 1005.5 |
| 20260504024541 | 45 | 0 | 0.0 | 1.0 | 0.00 | 0.00 | 0.00 | 88 | 1005.7 |
| 20260504024033 | 45 | 0 | 0.0 | 3.0 | 0.00 | 0.00 | 0.00 | 88 | 1005.7 |
| 20260504023533 | 45 | 0 | 0.0 | 3.0 | 0.00 | 0.00 | 0.00 | 88 | 1005.6 |
| 20260504023057 | 46 | 227 | 1.0 | 3.0 | 0.00 | 0.00 | 0.00 | 88 | 1005.6 |
| 20260504022533 | 46 | 0 | 0.0 | 1.0 | 0.00 | 0.00 | 0.00 | 87 | 1005.5 |
| 20260504022032 | 46 | 0 | 0.0 | 4.0 | 0.00 | 0.00 | 0.00 | 87 | 1005.7 |
| 20260504021546 | 46 | 0 | 0.0 | 4.0 | 0.00 | 0.00 | 0.00 | 87 | 1005.7 |
| 20260504021032 | 46 | 229 | 0.0 | 2.0 | 0.00 | 0.00 | 0.00 | 87 | 1005.7 |
| 20260504020533 | 46 | 0 | 0.0 | 3.0 | 0.00 | 0.00 | 0.00 | 87 | 1005.8 |
| 20260504020057 | 46 | 0 | 0.0 | 3.0 | 0.00 | 0.00 | 0.00 | 87 | 1005.7 |
| 20260504015532 | 46 | 212 | 0.0 | 2.0 | 0.00 | 0.00 | 0.00 | 88 | 1005.8 |
| 20260504015036 | 46 | 286 | 0.0 | 3.0 | 0.00 | 0.00 | 0.00 | 87 | 1005.9 |
| 20260504014548 | 46 | 0 | 0.0 | 3.0 | 0.00 | 0.00 | 0.00 | 87 | 1005.8 |
| 20260504014032 | 47 | 306 | 0.0 | 3.0 | 0.00 | 0.00 | 0.00 | 87 | 1005.8 |
| 20260504013533 | 47 | 0 | 0.0 | 2.0 | 0.00 | 0.00 | 0.00 | 88 | 1005.8 |
| 20260504013045 | 47 | 0 | 0.0 | 3.0 | 0.00 | 0.00 | 0.00 | 87 | 1005.9 |
| 20260504012533 | 47 | 269 | 0.0 | 3.0 | 0.00 | 0.00 | 0.00 | 88 | 1005.8 |
| 20260504012033 | 47 | 0 | 0.0 | 2.0 | 0.00 | 0.00 | 0.00 | 89 | 1005.9 |
| 20260504011540 | 47 | 0 | 0.0 | 1.0 | 0.00 | 0.00 | 0.00 | 89 | 1006.0 |
| 20260504011032 | 47 | 0 | 0.0 | 1.0 | 0.00 | 0.00 | 0.00 | 89 | 1006.0 |
| 20260504010532 | 47 | 0 | 0.0 | 1.0 | 0.00 | 0.00 | 0.00 | 89 | 1006.0 |
| 20260504010047 | 47 | 275 | 0.0 | 1.0 | 0.00 | 0.00 | 0.00 | 88 | 1006.1 |
| 20260504005532 | 47 | 0 | 0.0 | 2.0 | 0.00 | 0.00 | 0.00 | 88 | 1006.2 |
| 20260504005032 | 47 | 0 | 0.0 | 2.0 | 0.00 | 0.00 | 0.00 | 88 | 1006.1 |
| 20260504004559 | 47 | 0 | 0.0 | 4.0 | 0.00 | 0.00 | 0.00 | 88 | 1006.2 |
| 20260504004033 | 47 | 0 | 1.0 | 4.0 | 0.00 | 0.00 | 0.00 | 88 | 1006.2 |
| 20260504003532 | 47 | 158 | 1.0 | 4.0 | 0.00 | 0.00 | 0.00 | 88 | 1006.1 |
| 20260504003038 | 47 | 0 | 0.0 | 3.0 | 0.00 | 0.00 | 0.00 | 89 | 1006.2 |
| 20260504002533 | 47 | 165 | 0.0 | 2.0 | 0.00 | 0.00 | 0.00 | 89 | 1006.4 |
| 20260504002033 | 47 | 0 | 0.0 | 1.0 | 0.00 | 0.00 | 0.00 | 89 | 1006.4 |
| 20260504001541 | 47 | 0 | 0.0 | 1.0 | 0.00 | 0.00 | 0.00 | 89 | 1006.5 |
| 20260504001032 | 47 | 0 | 0.0 | 2.0 | 0.00 | 0.00 | 0.00 | 89 | 1006.6 |
| 20260504000533 | 47 | 211 | 0.0 | 2.0 | 0.00 | 0.00 | 0.00 | 89 | 1006.5 |
| 20260504000041 | 47 | 0 | 0.0 | 3.0 | 0.00 | 0.00 | 0.00 | 89 | 1006.6 |
| 20260503235533 | 47 | 0 | 0.0 | 3.0 | 0.00 | 0.00 | 0.00 | 90 | 1006.6 |
| 20260503235033 | 47 | 0 | 0.0 | 1.0 | 0.00 | 0.00 | 0.00 | 90 | 1006.6 |
| 20260503234543 | 47 | 0 | 0.0 | 2.0 | 0.00 | 0.00 | 0.00 | 90 | 1006.6 |
| 20260503234033 | 47 | 169 | 0.0 | 2.0 | 0.00 | 0.00 | 0.00 | 90 | 1006.8 |
| 20260503233533 | 47 | 0 | 0.0 | 2.0 | 0.00 | 0.00 | 0.00 | 91 | 1006.8 |
| 20260503233038 | 47 | 198 | 0.0 | 2.0 | 0.00 | 0.00 | 0.00 | 91 | 1006.7 |
| 20260503232532 | 47 | 0 | 1.0 | 2.0 | 0.00 | 0.00 | 0.00 | 91 | 1006.9 |
| 20260503232032 | 47 | 0 | 0.0 | 1.0 | 0.00 | 0.00 | 0.00 | 91 | 1007.1 |
| 20260503231538 | 47 | 0 | 0.0 | 0.0 | 0.00 | 0.00 | 0.00 | 91 | 1007.1 |
| 20260503231032 | 47 | 0 | 0.0 | 1.0 | 0.00 | 0.00 | 0.00 | 91 | 1007.2 |
| 20260503230536 | 47 | 0 | 0.0 | 1.0 | 0.00 | 0.00 | 0.00 | 91 | 1007.3 |
| 20260503230048 | 47 | 293 | 0.0 | 1.0 | 0.00 | 0.00 | 0.00 | 91 | 1007.3 |
| 20260503225534 | 47 | 219 | 0.0 | 1.0 | 0.00 | 0.00 | 0.00 | 91 | 1007.3 |
| 20260503225034 | 47 | 0 | 0.0 | 2.0 | 0.00 | 0.00 | 0.00 | 91 | 1007.4 |
| 20260503224541 | 47 | 0 | 0.0 | 4.0 | 0.00 | 0.00 | 0.00 | 91 | 1007.3 |
| 20260503224035 | 47 | 127 | 1.0 | 4.0 | 0.00 | 0.00 | 0.00 | 91 | 1007.2 |
| 20260503223535 | 47 | 0 | 0.0 | 1.0 | 0.00 | 0.00 | 0.00 | 91 | 1007.2 |
| 20260503223057 | 47 | 0 | 0.0 | 2.0 | 0.00 | 0.00 | 0.00 | 91 | 1007.3 |
| 20260503222534 | 47 | 0 | 0.0 | 3.0 | 0.00 | 0.00 | 0.00 | 91 | 1007.4 |
| 20260503222034 | 47 | 189 | 0.0 | 3.0 | 0.00 | 0.00 | 0.00 | 90 | 1007.4 |
| 20260503221552 | 47 | 83 | 0.0 | 3.0 | 0.00 | 0.00 | 0.00 | 90 | 1007.3 |
| 20260503221037 | 47 | 0 | 0.0 | 2.0 | 0.00 | 0.00 | 0.00 | 90 | 1007.4 |
| 20260503220535 | 47 | 0 | 0.0 | 2.0 | 0.00 | 0.00 | 0.00 | 90 | 1007.4 |
| 20260503220049 | 47 | 151 | 0.0 | 2.0 | 0.00 | 0.00 | 0.00 | 90 | 1007.4 |
| 20260503215534 | 47 | 140 | 0.0 | 2.0 | 0.00 | 0.00 | 0.00 | 90 | 1007.4 |
| 20260503215034 | 47 | 166 | 0.0 | 3.0 | 0.00 | 0.00 | 0.00 | 90 | 1007.5 |
| 20260503214545 | 47 | 172 | 1.0 | 3.0 | 0.00 | 0.00 | 0.00 | 89 | 1007.5 |
| 20260503214038 | 48 | 159 | 1.0 | 3.0 | 0.00 | 0.00 | 0.00 | 89 | 1007.4 |
| 20260503213535 | 48 | 108 | 0.0 | 2.0 | 0.00 | 0.00 | 0.00 | 89 | 1007.6 |
| 20260503213103 | 48 | 0 | 0.0 | 2.0 | 0.00 | 0.00 | 0.00 | 89 | 1007.6 |
| 20260503212535 | 48 | 144 | 0.0 | 3.0 | 0.00 | 0.00 | 0.00 | 89 | 1007.6 |
| 20260503212033 | 48 | 0 | 1.0 | 3.0 | 0.00 | 0.00 | 0.00 | 89 | 1007.6 |
| 20260503211544 | 48 | 0 | 0.0 | 3.0 | 0.00 | 0.00 | 0.00 | 89 | 1007.7 |
| 20260503211034 | 48 | 155 | 0.0 | 3.0 | 0.00 | 0.00 | 0.00 | 89 | 1007.7 |
| 20260503210538 | 48 | 168 | 1.0 | 3.0 | 0.00 | 0.00 | 0.00 | 89 | 1007.8 |
| 20260503210057 | 48 | 129 | 0.0 | 3.0 | 0.00 | 0.00 | 0.00 | 88 | 1007.7 |
| 20260503205535 | 49 | 116 | 1.0 | 3.0 | 0.00 | 0.00 | 0.00 | 88 | 1007.9 |
| 20260503205035 | 49 | 119 | 1.0 | 3.0 | 0.00 | 0.00 | 0.00 | 88 | 1008.0 |
| 20260503204553 | 49 | 0 | 1.0 | 4.0 | 0.00 | 0.00 | 0.00 | 87 | 1007.9 |
| 20260503204034 | 49 | 131 | 0.0 | 4.0 | 0.00 | 0.00 | 0.00 | 87 | 1008.0 |
| 20260503203534 | 49 | 210 | 2.0 | 5.0 | 0.00 | 0.00 | 0.00 | 86 | 1008.0 |
| 20260503203056 | 49 | 0 | 0.0 | 6.0 | 0.00 | 0.00 | 0.00 | 85 | 1008.1 |
| 20260503202535 | 49 | 150 | 3.0 | 9.0 | 0.00 | 0.00 | 0.00 | 84 | 1008.2 |
| 20260503202035 | 49 | 203 | 5.0 | 9.0 | 0.00 | 0.00 | 0.00 | 84 | 1008.2 |
| 20260503201547 | 49 | 114 | 2.0 | 7.0 | 0.00 | 0.00 | 0.00 | 85 | 1008.3 |
| 20260503201034 | 49 | 208 | 2.0 | 7.0 | 0.00 | 0.00 | 0.00 | 85 | 1008.3 |
| 20260503200534 | 49 | 186 | 3.0 | 7.0 | 0.00 | 0.00 | 0.00 | 85 | 1008.3 |
| 20260503200051 | 49 | 207 | 3.0 | 7.0 | 0.00 | 0.00 | 0.00 | 85 | 1008.3 |
| 20260503195535 | 49 | 227 | 4.0 | 7.0 | 0.00 | 0.00 | 0.00 | 85 | 1008.3 |
| 20260503195035 | 49 | 186 | 4.0 | 10.0 | 0.00 | 0.00 | 0.00 | 86 | 1008.3 |
| 20260503194547 | 49 | 180 | 4.0 | 10.0 | 0.00 | 0.00 | 0.00 | 86 | 1008.3 |
| 20260503194035 | 49 | 200 | 4.0 | 7.0 | 0.00 | 0.00 | 0.00 | 86 | 1008.3 |
| 20260503193536 | 49 | 176 | 4.0 | 7.0 | 0.00 | 0.00 | 0.00 | 86 | 1008.5 |
| 20260503193050 | 49 | 260 | 2.0 | 12.0 | 0.00 | 0.00 | 0.00 | 86 | 1008.5 |
| 20260503192533 | 49 | 191 | 4.0 | 12.0 | 0.00 | 0.00 | 0.00 | 86 | 1008.5 |
| 20260503192035 | 49 | 143 | 2.0 | 8.0 | 0.00 | 0.00 | 0.00 | 86 | 1008.3 |
| 20260503191541 | 50 | 176 | 3.0 | 7.0 | 0.00 | 0.00 | 0.00 | 86 | 1008.5 |
| 20260503191035 | 49 | 97 | 3.0 | 7.0 | 0.00 | 0.00 | 0.00 | 86 | 1008.5 |
| 20260503190536 | 50 | 132 | 3.0 | 7.0 | 0.00 | 0.00 | 0.00 | 86 | 1008.5 |
| 20260503190037 | 50 | 183 | 3.0 | 7.0 | 0.00 | 0.00 | 0.00 | 85 | 1008.3 |
| 20260503185534 | 50 | 252 | 2.0 | 7.0 | 0.00 | 0.00 | 0.00 | 86 | 1008.3 |
| 20260503185035 | 50 | 118 | 3.0 | 7.0 | 0.00 | 0.00 | 0.00 | 85 | 1008.4 |
| 20260503184550 | 50 | 103 | 2.0 | 7.0 | 0.00 | 0.00 | 0.00 | 85 | 1008.3 |
| 20260503184040 | 50 | 213 | 2.0 | 7.0 | 0.00 | 0.00 | 0.00 | 85 | 1008.3 |
| 20260503183535 | 50 | 191 | 3.0 | 8.0 | 0.00 | 0.00 | 0.00 | 84 | 1008.3 |
| 20260503183100 | 50 | 115 | 4.0 | 11.0 | 0.00 | 0.00 | 0.00 | 85 | 1008.3 |
| 20260503182536 | 50 | 166 | 2.0 | 11.0 | 0.00 | 0.00 | 0.00 | 84 | 1008.4 |
| 20260503182035 | 50 | 115 | 3.0 | 11.0 | 0.00 | 0.00 | 0.00 | 84 | 1008.3 |
| 20260503181540 | 50 | 131 | 3.0 | 8.0 | 0.00 | 0.00 | 0.00 | 83 | 1008.3 |
| 20260503181035 | 50 | 115 | 2.0 | 8.0 | 0.00 | 0.00 | 0.00 | 83 | 1008.3 |
| 20260503180535 | 50 | 179 | 4.0 | 8.0 | 0.00 | 0.00 | 0.00 | 83 | 1008.3 |
| 20260503180046 | 50 | 90 | 4.0 | 9.0 | 0.00 | 0.00 | 0.00 | 83 | 1008.3 |
| 20260503175534 | 51 | 114 | 4.0 | 9.0 | 0.00 | 0.00 | 0.00 | 83 | 1008.3 |
| 20260503175036 | 51 | 151 | 3.0 | 8.0 | 0.00 | 0.00 | 0.00 | 82 | 1008.2 |
| 20260503174547 | 51 | 155 | 2.0 | 8.0 | 0.00 | 0.00 | 0.00 | 82 | 1008.3 |
| 20260503174035 | 51 | 161 | 4.0 | 11.0 | 0.00 | 0.00 | 0.00 | 81 | 1008.3 |
| 20260503173535 | 51 | 160 | 5.0 | 11.0 | 0.00 | 0.00 | 0.00 | 80 | 1008.2 |
| 20260503173112 | 51 | 192 | 2.0 | 9.0 | 0.00 | 0.00 | 0.00 | 79 | 1008.1 |
| 20260503172536 | 52 | 200 | 4.0 | 8.0 | 0.00 | 0.00 | 0.00 | 79 | 1008.3 |
| 20260503172034 | 52 | 214 | 3.0 | 7.0 | 0.00 | 0.00 | 0.00 | 79 | 1008.3 |